Time,TemperatureF,DewpointF,PressureIn,WindDirection,WindDirectionDegrees,WindSpeedMPH,WindSpeedGustMPH,Humidity,HourlyPrecipIn,Conditions,Clouds,dailyrainin,SoftwareType,DateUTC
2013-02-21 00:12:00,66.4,62.0,30.05,NW,325,0.0,4.0,85,0.00,,,0.00,weatherlink.com 1.10,2013-02-21 05:12:00,
2013-02-21 00:28:00,66.3,62.0,30.04,NW,326,0.0,5.0,85,0.00,,,0.00,weatherlink.com 1.10,2013-02-21 05:28:00,
2013-02-21 00:43:00,66.2,62.0,30.04,NW,326,0.0,3.0,85,0.00,,,0.00,weatherlink.com 1.10,2013-02-21 05:43:00,
2013-02-21 00:59:00,66.1,62.0,30.04,NW,326,1.0,2.0,85,0.00,,,0.00,weatherlink.com 1.10,2013-02-21 05:59:00,
2013-02-21 01:14:00,65.9,61.0,30.03,NW,326,0.0,2.0,85,0.00,,,0.00,weatherlink.com 1.10,2013-02-21 06:14:00,
2013-02-21 01:28:00,65.7,62.0,30.03,NW,326,0.0,2.0,86,0.00,,,0.00,weatherlink.com 1.10,2013-02-21 06:28:00,
2013-02-21 01:44:00,65.6,62.0,30.02,NW,326,1.0,3.0,87,0.00,,,0.00,weatherlink.com 1.10,2013-02-21 06:44:00,
2013-02-21 01:58:00,65.4,62.0,30.01,NW,326,0.0,3.0,88,0.00,,,0.00,weatherlink.com 1.10,2013-02-21 06:58:00,
2013-02-21 02:13:00,65.3,62.0,30.01,NW,326,1.0,4.0,89,0.00,,,0.00,weatherlink.com 1.10,2013-02-21 07:13:00,
2013-02-21 02:28:00,65.2,62.0,30.00,NNW,327,1.0,4.0,90,0.00,,,0.00,weatherlink.com 1.10,2013-02-21 07:28:00,
2013-02-21 02:44:00,65.0,62.0,30.00,NW,321,0.0,3.0,91,0.00,,,0.00,weatherlink.com 1.10,2013-02-21 07:44:00,
2013-02-21 02:59:00,64.8,62.0,30.00,NW,317,3.0,4.0,91,0.00,,,0.00,weatherlink.com 1.10,2013-02-21 07:59:00,
2013-02-21 03:14:00,64.8,63.0,29.99,SE,146,2.0,5.0,92,0.00,,,0.00,weatherlink.com 1.10,2013-02-21 08:14:00,
2013-02-21 03:29:00,64.7,62.0,29.99,SE,143,2.0,4.0,92,0.00,,,0.00,weatherlink.com 1.10,2013-02-21 08:29:00,
2013-02-21 03:44:00,64.8,63.0,29.99,SE,143,1.0,2.0,92,0.00,,,0.00,weatherlink.com 1.10,2013-02-21 08:44:00,
2013-02-21 04:00:00,65.0,63.0,30.00,SE,143,1.0,2.0,92,0.00,,,0.00,weatherlink.com 1.10,2013-02-21 09:00:00,
2013-02-21 04:15:00,65.0,63.0,30.00,SE,143,0.0,3.0,92,0.00,,,0.00,weatherlink.com 1.10,2013-02-21 09:15:00,
2013-02-21 04:30:00,65.0,63.0,30.00,SE,130,1.0,4.0,92,0.00,,,0.00,weatherlink.com 1.10,2013-02-21 09:30:00,
2013-02-21 04:45:00,64.6,63.0,30.01,NE,45,3.0,4.0,93,0.00,,,0.00,weatherlink.com 1.10,2013-02-21 09:45:00,
2013-02-21 05:00:00,64.6,63.0,30.01,NE,45,1.0,3.0,93,0.00,,,0.00,weatherlink.com 1.10,2013-02-21 10:00:00,
2013-02-21 05:16:00,64.6,63.0,30.01,NE,45,1.0,2.0,93,0.00,,,0.00,weatherlink.com 1.10,2013-02-21 10:16:00,
2013-02-21 05:31:00,64.1,62.0,30.01,NE,45,1.0,2.0,93,0.00,,,0.00,weatherlink.com 1.10,2013-02-21 10:31:00,
2013-02-21 05:46:00,63.8,62.0,30.01,NE,45,0.0,2.0,93,0.00,,,0.00,weatherlink.com 1.10,2013-02-21 10:46:00,
2013-02-21 06:01:00,63.7,62.0,30.02,NE,45,1.0,2.0,94,0.00,,,0.00,weatherlink.com 1.10,2013-02-21 11:01:00,
2013-02-21 06:16:00,63.6,62.0,30.02,ENE,60,0.0,3.0,94,0.00,,,0.00,weatherlink.com 1.10,2013-02-21 11:16:00,
2013-02-21 06:31:00,63.5,62.0,30.03,East,89,1.0,2.0,94,0.00,,,0.00,weatherlink.com 1.10,2013-02-21 11:31:00,
2013-02-21 06:46:00,63.5,62.0,30.03,East,85,5.0,5.0,94,0.00,,,0.00,weatherlink.com 1.10,2013-02-21 11:46:00,
2013-02-21 07:02:00,63.3,62.0,30.03,ENE,63,2.0,4.0,94,0.00,,,0.00,weatherlink.com 1.10,2013-02-21 12:02:00,
2013-02-21 07:17:00,63.3,62.0,30.04,East,92,2.0,3.0,95,0.00,,,0.00,weatherlink.com 1.10,2013-02-21 12:17:00,
2013-02-21 07:32:00,63.4,62.0,30.05,East,84,2.0,5.0,94,0.00,,,0.00,weatherlink.com 1.10,2013-02-21 12:32:00,
2013-02-21 07:46:00,63.5,62.0,30.06,ENE,59,7.0,7.0,95,0.00,,,0.00,weatherlink.com 1.10,2013-02-21 12:46:00,
2013-02-21 08:01:00,63.8,62.0,30.06,East,97,1.0,5.0,95,0.00,,,0.00,weatherlink.com 1.10,2013-02-21 13:01:00,
2013-02-21 08:16:00,64.1,63.0,30.07,East,80,2.0,5.0,95,0.00,,,0.00,weatherlink.com 1.10,2013-02-21 13:16:00,
2013-02-21 08:31:00,64.7,63.0,30.07,ESE,123,1.0,5.0,95,0.00,,,0.00,weatherlink.com 1.10,2013-02-21 13:31:00,
2013-02-21 08:46:00,65.8,64.0,30.07,ESE,123,2.0,6.0,95,0.00,,,0.00,weatherlink.com 1.10,2013-02-21 13:46:00,
2013-02-21 09:01:00,66.8,65.0,30.07,SE,134,3.0,5.0,94,0.00,,,0.00,weatherlink.com 1.10,2013-02-21 14:01:00,
2013-02-21 09:17:00,67.7,66.0,30.06,ESE,120,3.0,5.0,93,0.00,,,0.00,weatherlink.com 1.10,2013-02-21 14:17:00,
2013-02-21 09:32:00,68.5,66.0,30.07,ESE,117,2.0,5.0,92,0.00,,,0.00,weatherlink.com 1.10,2013-02-21 14:32:00,
2013-02-21 09:47:00,69.9,67.0,30.07,SE,138,2.0,6.0,90,0.00,,,0.00,weatherlink.com 1.10,2013-02-21 14:47:00,
2013-02-21 10:02:00,71.3,67.0,30.07,SE,138,4.0,7.0,87,0.00,,,0.00,weatherlink.com 1.10,2013-02-21 15:02:00,
2013-02-21 10:18:00,72.4,68.0,30.07,SE,129,2.0,6.0,85,0.00,,,0.00,weatherlink.com 1.10,2013-02-21 15:18:00,
2013-02-21 10:33:00,73.8,68.0,30.08,SE,129,2.0,6.0,82,0.00,,,0.00,weatherlink.com 1.10,2013-02-21 15:33:00,
2013-02-21 10:47:00,75.5,68.0,30.08,ESE,120,3.0,4.0,78,0.00,,,0.00,weatherlink.com 1.10,2013-02-21 15:47:00,
2013-02-21 11:03:00,76.1,68.0,30.08,SE,142,3.0,7.0,75,0.00,,,0.00,weatherlink.com 1.10,2013-02-21 16:03:00,
2013-02-21 11:18:00,76.7,68.0,30.08,ESE,118,5.0,5.0,74,0.00,,,0.00,weatherlink.com 1.10,2013-02-21 16:18:00,
2013-02-21 11:33:00,77.6,68.0,30.07,SE,131,3.0,5.0,73,0.00,,,0.00,weatherlink.com 1.10,2013-02-21 16:33:00,
2013-02-21 11:49:00,78.7,69.0,30.07,SE,138,1.0,3.0,72,0.00,,,0.00,weatherlink.com 1.10,2013-02-21 16:49:00,
2013-02-21 12:04:00,81.6,70.0,30.07,SW,234,3.0,4.0,67,0.00,,,0.00,weatherlink.com 1.10,2013-02-21 17:04:00,
2013-02-21 12:19:00,82.9,69.0,30.06,SW,223,0.0,5.0,63,0.00,,,0.00,weatherlink.com 1.10,2013-02-21 17:19:00,
2013-02-21 12:34:00,83.8,69.0,30.05,WSW,249,1.0,5.0,62,0.00,,,0.00,weatherlink.com 1.10,2013-02-21 17:34:00,
2013-02-21 12:49:00,84.2,70.0,30.05,WSW,241,3.0,6.0,62,0.00,,,0.00,weatherlink.com 1.10,2013-02-21 17:49:00,
2013-02-21 13:05:00,84.6,70.0,30.04,WSW,242,0.0,6.0,61,0.00,,,0.00,weatherlink.com 1.10,2013-02-21 18:05:00,
2013-02-21 13:20:00,82.7,69.0,30.03,WSW,241,0.0,5.0,64,0.00,,,0.00,weatherlink.com 1.10,2013-02-21 18:20:00,
2013-02-21 13:35:00,82.9,70.0,30.03,WSW,257,4.0,6.0,65,0.00,,,0.00,weatherlink.com 1.10,2013-02-21 18:35:00,
2013-02-21 13:50:00,83.7,71.0,30.02,West,262,2.0,5.0,65,0.00,,,0.00,weatherlink.com 1.10,2013-02-21 18:50:00,
2013-02-21 14:04:00,82.9,69.0,30.01,SW,232,0.0,5.0,63,0.00,,,0.00,weatherlink.com 1.10,2013-02-21 19:04:00,
2013-02-21 14:19:00,82.8,68.0,30.00,WSW,254,3.0,6.0,62,0.00,,,0.00,weatherlink.com 1.10,2013-02-21 19:19:00,
2013-02-21 14:34:00,82.0,69.0,30.00,WSW,250,3.0,6.0,64,0.00,,,0.00,weatherlink.com 1.10,2013-02-21 19:34:00,
2013-02-21 14:49:00,80.9,68.0,30.00,SW,218,2.0,6.0,66,0.00,,,0.00,weatherlink.com 1.10,2013-02-21 19:49:00,
2013-02-21 15:05:00,80.2,68.0,30.00,SSW,209,0.0,6.0,67,0.00,,,0.00,weatherlink.com 1.10,2013-02-21 20:05:00,
2013-02-21 15:20:00,79.6,68.0,30.00,SW,228,2.0,5.0,68,0.00,,,0.00,weatherlink.com 1.10,2013-02-21 20:20:00,
2013-02-21 15:35:00,79.2,68.0,30.00,WSW,248,0.0,5.0,69,0.00,,,0.00,weatherlink.com 1.10,2013-02-21 20:35:00,
2013-02-21 15:50:00,78.8,68.0,29.99,WSW,248,3.0,4.0,70,0.00,,,0.00,weatherlink.com 1.10,2013-02-21 20:50:00,
2013-02-21 16:05:00,78.1,68.0,30.00,SW,225,1.0,4.0,72,0.00,,,0.00,weatherlink.com 1.10,2013-02-21 21:05:00,
2013-02-21 16:20:00,77.2,68.0,30.00,WSW,244,1.0,5.0,74,0.00,,,0.00,weatherlink.com 1.10,2013-02-21 21:20:00,
2013-02-21 16:36:00,77.1,68.0,30.00,WSW,255,2.0,5.0,74,0.00,,,0.00,weatherlink.com 1.10,2013-02-21 21:36:00,
2013-02-21 16:50:00,76.8,68.0,30.00,WSW,255,2.0,4.0,75,0.00,,,0.00,weatherlink.com 1.10,2013-02-21 21:50:00,
2013-02-21 17:06:00,76.4,68.0,30.00,WSW,255,2.0,3.0,75,0.00,,,0.00,weatherlink.com 1.10,2013-02-21 22:06:00,
2013-02-21 17:20:00,75.6,68.0,29.99,WSW,250,1.0,4.0,76,0.00,,,0.00,weatherlink.com 1.10,2013-02-21 22:20:00,
2013-02-21 17:35:00,75.0,68.0,29.99,WSW,250,2.0,3.0,78,0.00,,,0.00,weatherlink.com 1.10,2013-02-21 22:35:00,
2013-02-21 17:51:00,74.1,68.0,29.99,WSW,250,2.0,3.0,80,0.00,,,0.00,weatherlink.com 1.10,2013-02-21 22:51:00,
2013-02-21 18:06:00,73.3,68.0,29.99,WSW,250,0.0,3.0,82,0.00,,,0.00,weatherlink.com 1.10,2013-02-21 23:06:00,
2013-02-21 18:21:00,72.5,67.0,29.99,WSW,248,2.0,3.0,83,0.00,,,0.00,weatherlink.com 1.10,2013-02-21 23:21:00,
2013-02-21 18:36:00,71.8,67.0,29.99,WSW,246,0.0,3.0,85,0.00,,,0.00,weatherlink.com 1.10,2013-02-21 23:36:00,
2013-02-21 18:51:00,71.4,67.0,29.99,WSW,241,0.0,4.0,86,0.00,,,0.00,weatherlink.com 1.10,2013-02-21 23:51:00,
2013-02-21 19:06:00,71.2,67.0,30.00,WSW,240,0.0,3.0,87,0.00,,,0.00,weatherlink.com 1.10,2013-02-22 00:06:00,
2013-02-21 19:21:00,71.1,67.0,30.00,WSW,240,1.0,2.0,87,0.00,,,0.00,weatherlink.com 1.10,2013-02-22 00:21:00,
2013-02-21 19:37:00,71.0,67.0,30.01,WSW,240,0.0,3.0,87,0.00,,,0.00,weatherlink.com 1.10,2013-02-22 00:37:00,
2013-02-21 19:51:00,71.0,67.0,30.01,SW,217,1.0,6.0,87,0.00,,,0.00,weatherlink.com 1.10,2013-02-22 00:51:00,
2013-02-21 20:07:00,71.1,67.0,30.01,SSW,207,2.0,3.0,87,0.00,,,0.00,weatherlink.com 1.10,2013-02-22 01:07:00,
2013-02-21 20:22:00,71.0,67.0,30.02,SSW,198,2.0,3.0,87,0.00,,,0.00,weatherlink.com 1.10,2013-02-22 01:22:00,
2013-02-21 20:37:00,70.7,67.0,30.02,SSW,197,1.0,2.0,88,0.00,,,0.00,weatherlink.com 1.10,2013-02-22 01:37:00,
2013-02-21 20:53:00,70.3,67.0,30.02,SSW,197,0.0,4.0,89,0.00,,,0.00,weatherlink.com 1.10,2013-02-22 01:53:00,
2013-02-21 21:08:00,69.8,67.0,30.02,SSW,197,1.0,3.0,89,0.00,,,0.00,weatherlink.com 1.10,2013-02-22 02:08:00,
2013-02-21 21:23:00,69.8,67.0,30.03,SSW,197,0.0,2.0,89,0.00,,,0.00,weatherlink.com 1.10,2013-02-22 02:23:00,
2013-02-21 21:37:00,69.7,66.0,30.03,SSW,197,0.0,2.0,89,0.00,,,0.00,weatherlink.com 1.10,2013-02-22 02:37:00,
2013-02-21 21:52:00,70.3,66.0,30.03,SE,146,1.0,4.0,86,0.00,,,0.00,weatherlink.com 1.10,2013-02-22 02:52:00,
2013-02-21 22:07:00,70.4,66.0,30.03,SE,146,2.0,3.0,86,0.00,,,0.00,weatherlink.com 1.10,2013-02-22 03:07:00,
2013-02-21 22:22:00,70.2,66.0,30.04,SE,146,1.0,3.0,85,0.00,,,0.00,weatherlink.com 1.10,2013-02-22 03:22:00,
2013-02-21 22:37:00,70.7,65.0,30.03,SE,135,2.0,6.0,83,0.00,,,0.00,weatherlink.com 1.10,2013-02-22 03:37:00,
2013-02-21 22:53:00,70.8,65.0,30.04,SE,134,2.0,5.0,83,0.00,,,0.00,weatherlink.com 1.10,2013-02-22 03:53:00,
2013-02-21 23:08:00,70.5,65.0,30.04,SE,134,1.0,4.0,83,0.00,,,0.00,weatherlink.com 1.10,2013-02-22 04:08:00,
2013-02-21 23:23:00,70.2,65.0,30.04,SE,134,3.0,4.0,84,0.00,,,0.00,weatherlink.com 1.10,2013-02-22 04:23:00,
2013-02-21 23:38:00,69.8,65.0,30.04,SE,134,1.0,3.0,84,0.00,,,0.00,weatherlink.com 1.10,2013-02-22 04:38:00,
2013-02-21 23:53:00,69.4,65.0,30.04,SE,134,3.0,5.0,86,0.00,,,0.00,weatherlink.com 1.10,2013-02-22 04:53:00,